Starlink 34224

operational
NORAD ID: 64251 Int'l Des: 2025-119 Owner: SPXS Country: US Constellation: starlink
LEOCIRCULAR

Über Starlink 34224

Beschreibung wird geladen...

Live-Position

3D-Globus wird geladen...

Nächste Überflüge

Höhenverlauf

Altitude vs Time

uPlot chart will show altitude changes over time

Zweizeiliger Elementsatz

1 64251U 25119U 25353.14338279 .00018498 00000-0 67973-3 0 9996
2 64251 42.9994 41.6880 0000665 222.6002 137.4798 15.27594400 31858
Epoch: 19. Dez. 2025 • Age: 15 hours

Aktueller Status

Höhe 486.1 km
Geschwindigkeit 7.63 km/s
Subsatellitenpunkt 41.94°N, 146.17°E
Startdatum 3. Juni 2025
Alter 0.5 years
Typ internet

Technische Details

Klassifizierung Payload
Masse 575.00 kg
Trockenmasse 530.00 kg
Gesamtmasse 575.00 kg
Länge 0.30 m
Durchmesser 4.10 m
Spannweite 29.00 m
Form Box + pan
Hersteller SPXS
Bus-Typ Starlink V2MO
Phasenstatus In Orbit
Besitzer/Staat SPXS/US

Große Konstellationen

Loading constellations...